Date String (YYYY-MM-DD hh:mm:ss) UTC,Instrument flags,Ambient pressure (hPa),Sample flow (lpm),Bypass flow (lpm),Sample temperature (°C),Ambient temperature (°C),ASC tube jacket temperature (°C),LED temperature (°C),Box temperature (°C),Sample RH (%),Span deviation,Mass concentration (μg/m³),Mass concentration (μg/m³),Mass concentration (μg/m³)
DateTimeUTC,F1_M11,P_M11,Q1_M11,Q2_M11,T1_M11,T2_M11,T3_M11,T4_M11,T5_M11,U1_M11,ZSPAN_M11,X0_M11,X2_M11,X1_M11
2022-02-26 10:00:00,,0829.2,5.00,0.00,21.7,20.9,00.0,30.9,23.2,07.3,0000.0,0017.05,0010.35,0009.41
2022-02-26 10:01:00,,0829.2,5.00,0.00,21.7,21.2,00.0,30.9,23.2,07.3,0000.3,0016.47,0010.17,0009.24
2022-02-26 10:02:00,,0829.2,4.99,0.00,21.8,21.9,00.0,30.9,23.5,07.3,0000.7,0015.94,0010.00,0009.05
2022-02-26 10:03:00,,0829.2,5.00,0.00,21.9,22.7,00.0,30.9,23.7,07.3,0000.6,0015.55,0009.89,0008.95
2022-02-26 10:04:00,,0829.1,4.98,0.00,22.1,23.0,00.0,31.0,23.9,07.2,0000.6,0015.22,0009.77,0008.85
2022-02-26 10:05:00,,0829.0,5.00,0.00,22.1,22.6,00.0,31.0,23.9,07.2,0000.5,0015.19,0009.68,0008.76
2022-02-26 10:06:00,,0828.9,5.00,0.00,22.1,22.2,00.0,31.0,23.8,07.2,0000.7,0015.21,0009.61,0008.70
2022-02-26 10:07:00,,0828.9,4.99,0.00,22.0,21.7,00.0,31.0,23.7,07.2,0000.4,0014.91,0009.57,0008.68
2022-02-26 10:08:00,,0829.0,5.00,0.00,21.9,21.4,00.0,31.0,23.5,07.2,0000.4,0014.82,0009.55,0008.67
2022-02-26 10:09:00,,0829.0,5.00,0.00,21.9,21.2,00.0,30.9,23.4,07.3,0000.3,0014.92,0009.59,0008.70
2022-02-26 10:10:00,,0829.2,5.00,0.00,21.8,20.9,00.0,30.9,23.3,07.3,0000.2,0014.89,0009.57,0008.69
2022-02-26 10:11:00,,0829.2,4.98,0.00,21.7,20.8,00.0,30.9,23.2,07.3,0000.4,0014.72,0009.53,0008.68
2022-02-26 10:12:00,,0829.2,5.02,0.00,21.7,21.4,00.0,30.9,23.3,07.2,0001.0,0014.55,0009.48,0008.68
2022-02-26 10:13:00,,0829.2,5.00,0.00,21.8,22.2,00.0,30.9,23.6,07.2,0001.1,0014.41,0009.51,0008.71
2022-02-26 10:14:00,,0829.1,5.01,0.00,22.0,22.9,00.0,30.9,23.9,07.2,0000.7,0014.43,0009.56,0008.75
2022-02-26 10:15:00,,0829.1,4.99,0.00,22.1,23.0,00.0,31.0,24.0,07.2,0000.8,0014.80,0009.65,0008.84
2022-02-26 10:16:00,,0829.1,5.00,0.00,22.1,22.6,00.0,31.0,23.9,07.1,0000.6,0014.58,0009.71,0008.92
2022-02-26 10:17:00,,0829.1,5.01,0.00,22.0,22.2,00.0,31.0,23.7,07.1,0000.3,0014.60,0009.83,0009.03
2022-02-26 10:18:00,,0829.1,4.98,0.00,22.0,21.8,00.0,31.0,23.5,07.2,0000.3,0014.77,0009.96,0009.12
2022-02-26 10:19:00,,0829.1,5.00,0.00,21.9,21.5,00.0,30.9,23.4,07.2,0000.5,0014.98,0010.07,0009.19
2022-02-26 10:20:00,,0829.2,5.00,0.00,21.8,21.2,00.0,30.9,23.3,07.2,0000.4,0014.99,0010.08,0009.23
2022-02-26 10:21:00,,0829.2,5.00,0.00,21.7,20.9,00.0,30.9,23.1,07.3,0000.3,0015.28,0010.18,0009.30
2022-02-26 10:22:00,,0829.1,5.00,0.00,21.6,20.8,00.0,30.9,23.1,07.3,0000.3,0015.45,0010.30,0009.39
2022-02-26 10:23:00,,0829.1,5.01,0.00,21.6,21.1,00.0,30.8,23.1,07.3,-000.2,0015.59,0010.39,0009.45
2022-02-26 10:24:00,,0829.0,5.00,0.00,21.7,22.0,00.0,30.9,23.4,07.2,-000.4,0015.58,0010.43,0009.51
2022-02-26 10:25:00,,0829.1,5.01,0.00,21.9,22.8,00.0,30.9,23.8,07.2,-000.5,0015.68,0010.47,0009.57
2022-02-26 10:26:00,,0829.2,4.98,0.00,22.0,23.1,00.0,30.9,23.9,07.1,-000.0,0015.37,0010.49,0009.57
2022-02-26 10:27:00,,0829.3,5.00,0.00,22.1,22.7,00.0,30.9,23.9,07.1,0000.4,0015.49,0010.51,0009.60
2022-02-26 10:28:00,,0829.2,4.99,0.00,22.0,22.3,00.0,30.9,23.7,07.1,0000.9,0015.90,0010.49,0009.61
2022-02-26 10:29:00,,0829.2,5.01,0.00,21.9,21.9,00.0,30.9,23.6,07.1,0000.9,0015.87,0010.46,0009.62
2022-02-26 10:30:00,,0829.2,4.99,0.00,21.9,21.6,00.0,30.9,23.4,07.1,0000.5,0016.27,0010.52,0009.65
2022-02-26 10:31:00,,0829.2,5.01,0.00,21.8,21.3,00.0,30.9,23.3,07.2,0000.4,0016.37,0010.61,0009.71
2022-02-26 10:32:00,,0829.1,4.99,0.00,21.7,21.1,00.0,30.9,23.2,07.2,0000.3,0016.14,0010.60,0009.73
2022-02-26 10:33:00,,0829.1,5.00,0.00,21.6,21.0,00.0,30.8,23.1,07.2,0000.2,0016.14,0010.57,0009.73
2022-02-26 10:34:00,,0829.1,5.01,0.00,21.7,21.6,00.0,30.8,23.3,07.2,0000.4,0016.10,0010.58,0009.76
2022-02-26 10:35:00,,0829.2,5.01,0.00,21.8,22.4,00.0,30.9,23.6,07.2,0000.3,0016.23,0010.59,0009.78
2022-02-26 10:36:00,,0829.2,5.01,0.00,22.0,22.8,00.0,30.9,23.8,07.1,0000.8,0016.59,0010.66,0009.83
2022-02-26 10:37:00,,0829.2,5.00,0.00,22.0,22.5,00.0,30.9,23.8,07.1,0000.7,0016.66,0010.69,0009.89
2022-02-26 10:38:00,,0829.2,5.00,0.00,22.0,22.1,00.0,30.9,23.7,07.1,0000.5,0017.06,0010.79,0009.96
2022-02-26 10:39:00,,0829.2,5.01,0.00,21.9,21.7,00.0,30.9,23.5,07.1,0000.1,0016.56,0010.87,0010.04
2022-02-26 10:40:00,,0829.2,4.98,0.00,21.8,21.4,00.0,30.9,23.4,07.2,-000.0,0016.68,0010.97,0010.13
2022-02-26 10:41:00,,0829.2,5.00,0.00,21.8,21.2,00.0,30.9,23.3,07.2,0000.3,0016.28,0011.02,0010.22
2022-02-26 10:42:00,,0829.2,5.00,0.00,21.7,21.0,00.0,30.9,23.2,07.2,0000.2,0016.18,0011.03,0010.29
2022-02-26 10:43:00,,0829.2,5.00,0.00,21.6,20.9,00.0,30.8,23.1,07.2,0000.5,0016.27,0011.10,0010.36
2022-02-26 10:44:00,,0829.2,5.01,0.00,21.7,21.4,00.0,30.8,23.2,07.2,0000.6,0016.46,0011.17,0010.44
2022-02-26 10:45:00,,0829.2,5.00,0.00,21.8,22.2,00.0,30.9,23.5,07.1,0000.4,0016.46,0011.22,0010.52
2022-02-26 10:46:00,,0829.2,5.01,0.00,21.9,22.9,00.0,30.9,23.8,07.1,0000.4,0016.47,0011.31,0010.58
2022-02-26 10:47:00,,0829.2,4.98,0.00,22.0,22.9,00.0,30.9,23.9,07.0,0000.4,0016.01,0011.30,0010.61
2022-02-26 10:48:00,,0829.2,5.00,0.00,22.0,22.5,00.0,30.9,23.8,07.0,0000.3,0016.01,0011.35,0010.65
2022-02-26 10:49:00,,0829.2,4.99,0.00,22.0,22.1,00.0,30.9,23.7,07.0,0000.2,0015.75,0011.37,0010.67
2022-02-26 10:50:00,,0829.2,5.01,0.00,21.9,21.8,00.0,30.9,23.6,07.0,0000.3,0015.82,0011.35,0010.65
2022-02-26 10:51:00,,0829.2,5.00,0.00,21.9,21.6,00.0,30.9,23.5,07.1,0000.3,0015.82,0011.33,0010.61
2022-02-26 10:52:00,,0829.2,5.01,0.00,21.8,21.3,00.0,30.9,23.4,07.1,0000.5,0015.73,0011.28,0010.57
2022-02-26 10:53:00,,0829.2,5.00,0.00,21.8,21.1,00.0,30.9,23.3,07.1,0000.9,0015.64,0011.20,0010.49
2022-02-26 10:54:00,,0829.2,5.00,0.00,21.7,20.9,00.0,30.8,23.2,07.1,0000.6,0015.57,0011.13,0010.40
2022-02-26 10:55:00,,0829.3,5.01,0.00,21.7,21.3,00.0,30.8,23.3,07.1,0000.6,0015.49,0011.10,0010.34
2022-02-26 10:56:00,,0829.2,5.00,0.00,21.8,22.1,00.0,30.9,23.5,07.0,0000.6,0015.62,0011.11,0010.33
2022-02-26 10:57:00,,0829.4,5.01,0.00,22.0,22.7,00.0,30.9,23.8,06.9,0000.8,0016.16,0011.13,0010.35
2022-02-26 10:58:00,,0829.5,4.99,0.00,22.1,22.9,00.0,31.0,24.0,06.9,0000.6,0016.38,0011.16,0010.36
2022-02-26 10:59:00,,0829.5,5.00,0.00,22.1,22.5,00.0,31.0,23.9,06.9,0000.5,0016.39,0011.15,0010.34
